STARLINK-1566, 46079

Orbit data source: Space-Track

STARLINK-1566, 46079 is a payload satellite owned by SpaceX/Seattle (US) in LEO that was launched on Fri, 07 Aug 2020 UTC via an FALCON 9 launch vehicle from the Air Force Eastern Test Range (AFETR). Payload-class satellites include a variety of spacecraft equipped with specific instruments for various scientific and technological missions. These include communications satellites like Starlink; space stations such as the ISS; scientific satellites like the Hubble; Earth observation satellites from companies like Planet Labs, Umbra, and HawkEye 360; GPS; miniature CubeSats for education and research; and military/defense satellites.

Loading next visibility...
Identifier
46079, 2020-055BE
Orbit
LEO
Country
Flag of USUS
Related business
Manufacturer
SpaceX/Seattle
Mission
Operational Commercial Communications
Bus & Motor
STARLINK, Unknown motor
Mass
260 kg wet, ~248 kg dry
Launch date (UTC)
2020-08-07 (6 years ago)
Launch vehicle
FALCON 9
Launch site
Air Force Eastern Test Range (AFETR)
Object type
Payload
Rocket body
Debris
Shape & HBR
Box + 1 Pan, 10.1 m
Radar Cross Section
13.562 m², Large (>1 m²)

Expand to show TLE details & history
Last TLE update: 12 hours ago

TLE from 12 hours ago
0 STARLINK-1566
1 46079U 20055BE  26171.46007590 -.00000051  00000-0  10123-4 0  9994
2 46079  53.1620 343.0311 0001193  99.4036 260.7100 15.31705306324988
Epoch: 2026-06-20T11:02Z
TLE epoch observation values (Epoch: 2026-06-20T11:02:30.557Z)
Latitude
-0.00006°
Longitude
-91.27065°
Altitude
471.757 km
Speed
7.631 km/s
True Right ascension
22h 52m 07s
True Declination
0° 00' 00"
Sunlit
Object was in daylight at epoch
Visualization orbit readout
Latitude
Unknown
Longitude
Unknown
Altitude
Unknown
Speed
Unknown
Apparent Right ascension
Unknown
Apparent Declination
Unknown
Sunlit
N/A
Visualization observer readout
Local Sidereal Time
09:36:56
Azimuth
Unknown
Elevation
Unknown
Doppler factor
Unknown
Orbital elements
Apogee altitude
471.798 km
Perigee altitude
470.163 km
Semi-major axis
6,849.117 km
Eccentricity
0.00012
Inclination
53.162°
RAAN
343.0311°
Arg. of periapsis
99.4036°
True anomaly
260.69651°
Mean anomaly
260.71°
Eccentric anomaly
260.70325°
Mean motion
3.82905 °/min
Orbital period
94.02 mins
BSTAR
0.000010123
Loading maneuver chart data...
Computing Atmospheric mass density...

Documentation

Showing up to 5 results
|